QPF
0.00 0.00 0.00 0.00 0.00 0.00 0.00 0.00 0.00 0.00 0.00 0.00 0.00 0.00 0.00 0.00 0.00 0.00 0.00 0.00 0.00 0.00 0.00 0.00 0.00 0.00 0.00 0.00 0.00 0.00 0.00 0.00 0.00 0.00 0.00 0.00 0.00 0.00 0.00 0.00 0.00 0.00 0.00 0.00 0.00 0.01 0.00 0.00 0.00
0.00 0.00 0.00 0.00 0.00 0.00 0.00 0.00 0.00 0.00 0.00 0.00 0.00 0.00 0.00 0.00 0.00 0.00 0.00 0.00 0.00 0.00 0.00 0.00 0.00 0.00 0.00 0.00 0.00 0.00 0.00 0.00 0.01 0.02 0.00 0.00 0.00 0.00 0.00 0.00 0.01 0.01 0.00 0.00 0.00 0.00 0.00 0.00 0.00
0.00 0.00 0.00 0.00 0.00 0.00 0.00 0.00 0.00 0.00 0.00 0.00 0.00 0.00 0.00 0.00 0.00 0.00 0.00 0.00 0.00 0.00 0.00 0.00 0.00 0.00 0.00 0.00 0.00 0.00 0.00 0.00 0.00 0.00 0.00 0.00 0.00 0.00 0.00 0.01 0.00 0.00 0.00 0.00 0.00 0.00 0.00 0.00 0.00
0.00 0.00 0.00 0.00 0.00 0.00 0.00 0.00 0.00 0.00 0.00 0.00 0.00 0.00 0.00 0.00 0.00 0.00 0.00 0.00 0.00 0.00 0.00 0.00 0.00 0.00 0.00 0.00 0.00 0.00 0.00 0.00 0.00 0.00 0.00 0.00 0.01 0.00 0.00 0.00 0.00 0.00 0.00 0.00 0.00 0.02 0.01 0.01 0.00
0.00 0.00 0.00 0.00 0.00 0.00 0.00 0.00 0.00 0.00 0.00 0.00 0.00 0.00 0.00 0.00 0.00 0.00 0.00 0.00 0.00 0.00 0.00 0.00 0.00 0.00 0.00 0.00 0.00 0.00 0.00 0.00 0.00 0.00 0.00 0.00 0.00 0.01 0.00 0.00 0.00 0.00 0.00 0.00 0.00 0.00 0.00 0.00 0.00
0.00 0.00 0.00 0.00 0.00 0.00 0.00 0.00 0.00 0.00 0.00 0.00 0.00 0.00 0.00 0.00 0.00 0.00 0.00 0.00 0.00 0.00 0.00 0.00 0.00 0.00 0.00 0.00 0.00 0.00 0.00 0.00 0.00 0.00 0.00 0.00 0.00 0.00 0.00 0.00 0.00 0.00 0.00 0.00 0.00 0.00 0.00 0.00 0.00
0.00 0.00 0.00 0.00 0.00 0.00 0.00 0.00 0.00 0.00 0.00 0.00 0.00 0.00 0.00 0.00 0.00 0.00 0.00 0.00 0.00 0.00 0.00 0.00 0.00 0.00 0.00 0.00 0.00 0.00 0.00 0.00 0.00 0.00 0.00 0.00 0.00 0.00 0.00 0.00 0.00 0.00 0.00 0.00 0.00 0.00 0.00 0.00 0.00
0.00 0.00 0.00 0.00 0.00 0.00 0.00 0.00 0.00 0.00 0.00 0.00 0.00 0.00 0.00 0.00 0.00 0.00 0.00 0.00 0.00 0.00 0.00 0.00 0.00 0.00 0.00 0.00 0.00 0.00 0.00 0.00 0.00 0.00 0.00 0.00 0.00 0.00 0.00 0.00 0.00 0.00 0.00 0.00 0.00 0.00 0.00 0.00 0.00
0.00 0.00 0.00 0.00 0.00 0.00 0.00 0.00 0.00 0.00 0.00 0.00 0.00 0.00 0.00 0.00 0.00 0.00 0.00 0.00 0.00 0.00 0.00 0.00 0.00 0.00 0.00 0.00 0.00 0.00 0.00 0.00 0.00 0.00 0.00 0.00 0.00 0.00 0.00 0.00 0.00 0.00 0.00 0.00 0.00 0.00 0.00 0.00 0.00
0.00 0.00 0.00 0.00 0.00 0.00 0.00 0.00 0.00 0.00 0.00 0.00 0.00 0.00 0.00 0.00 0.00 0.00 0.00 0.00 0.00 0.00 0.00 0.00 0.00 0.00 0.00 0.00 0.00 0.00 0.00 0.00 0.00 0.00 0.00 0.00 0.00 0.00 0.00 0.00 0.00 0.00 0.00 0.00 0.00 0.00 0.00 0.00 0.00
0.00 0.00 0.00 0.00 0.00 0.00 0.00 0.00 0.00 0.00 0.00 0.00 0.00 0.00 0.00 0.00 0.00 0.00 0.00 0.00 0.00 0.00 0.00 0.00 0.00 0.00 0.00 0.00 0.00 0.00 0.00 0.00 0.00 0.00 0.00 0.00 0.00 0.00 0.00 0.00 0.00 0.00 0.00 0.00 0.00 0.00 0.00 0.00 0.00
0.00 0.00 0.00 0.00 0.00 0.00 0.00 0.00 0.00 0.00 0.00 0.00 0.00 0.00 0.00 0.00 0.00 0.00 0.00 0.00 0.00 0.00 0.00 0.00 0.00 0.00 0.00 0.00 0.00 0.00 0.00 0.00 0.00 0.00 0.00 0.00 0.00 0.00 0.00 0.00 0.00 0.00 0.00 0.00 0.00 0.00 0.00 0.00 0.00
0.00 0.00 0.00 0.00 0.00 0.00 0.00 0.00 0.00 0.00 0.00 0.00 0.00 0.00 0.00 0.00 0.00 0.00 0.00 0.00 0.00 0.00 0.00 0.00 0.00 0.00 0.00 0.00 0.00 0.00 0.00 0.00 0.00 0.00 0.00 0.00 0.00 0.00 0.00 0.00 0.00 0.00 0.00 0.00 0.00 0.00 0.00 0.00 0.00
0.00 0.00 0.00 0.00 0.00 0.00 0.00 0.00 0.00 0.00 0.00 0.00 0.00 0.00 0.00 0.00 0.00 0.00 0.00 0.00 0.00 0.00 0.00 0.00 0.00 0.00 0.00 0.00 0.00 0.00 0.00 0.00 0.00 0.00 0.00 0.00 0.00 0.00 0.00 0.00 0.00 0.00 0.00 0.00 0.00 0.00 0.00 0.00 0.00
0.00 0.00 0.00 0.00 0.00 0.00 0.00 0.00 0.00 0.00 0.00 0.00 0.00 0.00 0.00 0.00 0.00 0.00 0.00 0.00 0.00 0.00 0.00 0.00 0.00 0.00 0.00 0.00 0.00 0.00 0.00 0.00 0.00 0.00 0.00 0.00 0.00 0.01 0.00 0.01 0.00 0.01 0.01 0.01 0.02 0.02 0.02 0.04 0.08
0.00 0.00 0.00 0.00 0.00 0.00 0.00 0.00 0.00 0.00 0.00 0.00 0.00 0.00 0.00 0.00 0.00 0.00 0.00 0.00 0.00 0.00 0.00 0.00 0.00 0.00 0.00 0.00 0.00 0.00 0.00 0.00 0.00 0.00 0.00 0.00 0.00 0.00 0.00 0.04 0.07 0.06 0.08 0.07 0.08 0.06 0.06 0.07 0.08
0.00 0.00 0.00 0.00 0.00 0.00 0.00 0.00 0.00 0.00 0.00 0.00 0.00 0.00 0.00 0.00 0.00 0.00 0.00 0.00 0.00 0.00 0.00 0.00 0.00 0.00 0.00 0.00 0.00 0.00 0.00 0.00 0.00 0.00 0.00 0.00 0.00 0.00 0.00 0.00 0.01 0.01 0.04 0.04 0.02 0.02 0.02 0.03 0.04
0.00 0.00 0.00 0.00 0.00 0.00 0.00 0.00 0.00 0.00 0.00 0.00 0.00 0.00 0.00 0.00 0.00 0.00 0.00 0.00 0.00 0.00 0.00 0.00 0.00 0.00 0.00 0.00 0.00 0.00 0.00 0.00 0.00 0.00 0.00 0.00 0.00 0.00 0.00 0.00 0.00 0.00 0.00 0.00 0.00 0.00 0.00 0.00 0.00
0.00 0.00 0.00 0.00 0.00 0.00 0.00 0.00 0.00 0.00 0.00 0.00 0.00 0.00 0.00 0.00 0.00 0.00 0.00 0.00 0.00 0.00 0.00 0.00 0.00 0.00 0.00 0.00 0.00 0.00 0.00 0.00 0.00 0.00 0.00 0.00 0.00 0.00 0.00 0.00 0.00 0.00 0.00 0.00 0.00 0.00 0.00 0.00 0.00
0.00 0.00 0.00 0.00 0.00 0.00 0.00 0.00 0.00 0.00 0.00 0.00 0.00 0.00 0.00 0.00 0.00 0.00 0.00 0.00 0.00 0.00 0.00 0.00 0.00 0.00 0.00 0.00 0.00 0.00 0.00 0.00 0.00 0.00 0.00 0.00 0.00 0.00 0.00 0.00 0.00 0.00 0.00 0.00 0.00 0.00 0.00 0.00 0.00
0.00 0.00 0.00 0.00 0.00 0.00 0.00 0.00 0.00 0.00 0.00 0.00 0.00 0.00 0.00 0.00 0.00 0.00 0.00 0.00 0.00 0.00 0.00 0.00 0.00 0.00 0.00 0.00 0.00 0.00 0.00 0.00 0.00 0.00 0.00 0.00 0.00 0.00 0.00 0.00 0.00 0.00 0.00 0.00 0.00 0.00 0.00 0.00 0.00
0.00 0.00 0.00 0.00 0.00 0.00 0.00 0.00 0.00 0.00 0.00 0.00 0.00 0.00 0.00 0.00 0.00 0.00 0.00 0.00 0.00 0.00 0.00 0.00 0.00 0.00 0.00 0.00 0.00 0.00 0.00 0.00 0.00 0.00 0.00 0.00 0.00 0.00 0.00 0.00 0.00 0.00 0.00 0.00 0.00 0.00 0.00 0.00 0.00
0.00 0.00 0.00 0.00 0.00 0.00 0.00 0.00 0.00 0.00 0.00 0.00 0.00 0.00 0.00 0.00 0.00 0.00 0.00 0.00 0.00 0.00 0.00 0.00 0.00 0.00 0.00 0.00 0.00 0.00 0.00 0.00 0.00 0.00 0.00 0.00 0.00 0.00 0.00 0.00 0.00 0.00 0.00 0.00 0.00 0.00 0.00 0.00 0.00
0.00 0.00 0.00 0.00 0.00 0.00 0.00 0.00 0.00 0.00 0.00 0.00 0.00 0.00 0.00 0.00 0.00 0.00 0.00 0.00 0.00 0.00 0.00 0.00 0.00 0.00 0.00 0.00 0.00 0.00 0.00 0.00 0.00 0.00 0.00 0.00 0.00 0.00 0.00 0.00 0.00 0.00 0.00 0.00 0.00 0.00 0.00 0.00 0.00
0.00 0.00 0.00 0.00 0.00 0.00 0.00 0.00 0.00 0.00 0.00 0.00 0.00 0.00 0.00 0.00 0.00 0.00 0.00 0.00 0.00 0.00 0.00 0.00 0.00 0.00 0.00 0.00 0.00 0.00 0.00 0.00 0.00 0.00 0.00 0.00 0.00 0.00 0.00 0.00 0.00 0.00 0.00 0.00 0.00 0.00 0.00 0.00 0.00
0.00 0.00 0.00 0.00 0.00 0.00 0.00 0.00 0.00 0.00 0.00 0.00 0.00 0.00 0.00 0.00 0.00 0.00 0.00 0.00 0.00 0.00 0.00 0.00 0.00 0.00 0.00 0.00 0.00 0.00 0.00 0.00 0.00 0.00 0.00 0.00 0.00 0.00 0.00 0.00 0.00 0.00 0.00 0.00 0.00 0.00 0.00 0.00 0.00
0.00 0.00 0.00 0.00 0.00 0.00 0.00 0.00 0.00 0.00 0.00 0.00 0.00 0.00 0.00 0.00 0.00 0.00 0.00 0.00 0.00 0.00 0.00 0.00 0.00 0.00 0.00 0.00 0.00 0.00 0.00 0.00 0.00 0.00 0.00 0.00 0.00 0.00 0.00 0.00 0.00 0.00 0.00 0.00 0.00 0.00 0.00 0.00 0.00
0.00 0.00 0.00 0.00 0.00 0.00 0.00 0.00 0.00 0.00 0.00 0.00 0.00 0.00 0.00 0.00 0.00 0.00 0.00 0.00 0.00 0.00 0.00 0.00 0.00 0.00 0.00 0.00 0.00 0.00 0.00 0.00 0.00 0.00 0.00 0.00 0.00 0.00 0.00 0.00 0.00 0.00 0.00 0.00 0.00 0.00 0.00 0.00 0.00
0.00 0.00 0.00 0.00 0.00 0.00 0.00 0.00 0.00 0.00 0.00 0.00 0.00 0.00 0.00 0.00 0.00 0.00 0.00 0.00 0.00 0.00 0.00 0.00 0.00 0.00 0.00 0.00 0.00 0.00 0.00 0.00 0.00 0.00 0.00 0.00 0.00 0.00 0.00 0.00 0.00 0.00 0.00 0.00 0.00 0.00 0.00 0.00 0.00
0.00 0.00 0.00 0.00 0.00 0.00 0.00 0.00 0.00 0.00 0.00 0.00 0.00 0.00 0.00 0.00 0.00 0.00 0.00 0.00 0.00 0.00 0.00 0.00 0.00 0.00 0.00 0.00 0.00 0.00 0.00 0.00 0.00 0.00 0.00 0.00 0.00 0.00 0.00 0.00 0.00 0.00 0.00 0.00 0.00 0.00 0.00 0.00 0.00
MSLP
1013.67 1013.67 1013.20 1012.58 1012.09 1011.59 1012.22 1013.34 1013.96 1014.39 1014.86 1015.51 1015.77 1015.74 1015.68 1016.32 1016.42 1017.10 1018.25 1018.50 1018.54 1019.04 1019.54 1020.19 1020.64 1020.86 1021.03 1021.15 1021.25 1021.31 1021.38 1021.43 1021.47 1021.53 1021.59 1021.68 1021.72 1021.70 1021.69 1021.67 1021.58 1021.61 1021.61 1021.59 1021.62 1021.67 1021.77 1021.77 1021.75
1013.43 1013.44 1012.68 1011.89 1011.30 1011.11 1012.13 1013.37 1013.86 1014.41 1015.22 1015.81 1016.02 1016.21 1016.07 1016.53 1017.20 1017.65 1018.25 1018.90 1018.77 1019.22 1019.63 1020.02 1020.76 1021.00 1021.15 1021.28 1021.40 1021.47 1021.53 1021.58 1021.49 1021.61 1021.69 1021.77 1021.85 1021.88 1021.89 1021.87 1021.88 1021.90 1021.92 1021.85 1021.79 1021.83 1021.95 1022.02 1022.05
1013.42 1013.03 1011.66 1011.37 1011.32 1011.07 1011.92 1013.26 1013.94 1015.10 1015.70 1015.86 1016.03 1016.45 1016.44 1016.82 1017.47 1017.63 1018.28 1018.77 1019.08 1019.44 1019.78 1020.30 1020.90 1021.15 1021.31 1021.42 1021.56 1021.65 1021.71 1021.75 1021.75 1021.78 1021.83 1021.91 1021.98 1022.03 1022.07 1022.10 1022.15 1022.17 1022.15 1022.08 1021.95 1021.95 1022.09 1022.19 1022.20
1012.99 1012.35 1012.26 1011.38 1011.40 1012.21 1012.24 1013.15 1014.17 1015.24 1015.89 1016.11 1015.91 1016.26 1017.05 1017.51 1017.54 1017.90 1018.50 1018.81 1019.18 1019.62 1019.96 1020.76 1021.05 1021.26 1021.40 1021.52 1021.62 1021.75 1021.82 1021.89 1021.92 1021.96 1021.98 1021.99 1022.03 1022.11 1022.23 1022.32 1022.35 1022.37 1022.35 1022.27 1022.23 1022.11 1022.21 1022.27 1022.31
1012.83 1012.07 1011.53 1011.55 1012.17 1012.90 1013.35 1013.52 1014.25 1014.80 1015.30 1015.69 1016.07 1016.35 1016.83 1017.68 1018.03 1018.32 1018.66 1018.91 1019.24 1019.69 1020.10 1020.64 1021.12 1021.29 1021.44 1021.53 1021.68 1021.80 1021.89 1021.97 1022.04 1022.05 1022.08 1022.07 1022.06 1022.12 1022.29 1022.36 1022.44 1022.47 1022.48 1022.45 1022.40 1022.40 1022.39 1022.40 1022.40
1012.61 1012.46 1011.64 1011.58 1012.49 1013.43 1013.93 1014.17 1014.35 1014.80 1015.31 1015.91 1015.90 1016.23 1017.10 1017.95 1018.01 1018.39 1018.74 1019.04 1019.31 1019.78 1020.28 1020.57 1021.20 1021.29 1021.43 1021.58 1021.69 1021.85 1021.94 1022.02 1022.11 1022.16 1022.19 1022.15 1022.16 1022.14 1022.30 1022.41 1022.46 1022.50 1022.52 1022.51 1022.49 1022.47 1022.46 1022.47 1022.47
1013.16 1012.69 1012.14 1012.20 1012.88 1013.54 1014.01 1014.70 1014.47 1014.82 1015.37 1015.77 1015.96 1015.96 1017.23 1017.89 1018.11 1018.42 1018.76 1018.99 1019.52 1019.91 1020.35 1020.61 1020.86 1021.25 1021.55 1021.67 1021.79 1021.94 1022.01 1022.06 1022.13 1022.19 1022.22 1022.23 1022.32 1022.38 1022.47 1022.52 1022.53 1022.51 1022.48 1022.47 1022.46 1022.45 1022.48 1022.48 1022.44
1014.13 1013.65 1013.24 1012.93 1013.21 1013.66 1014.47 1014.82 1014.93 1015.00 1015.46 1016.31 1016.27 1015.85 1016.58 1017.34 1018.28 1018.58 1018.81 1019.20 1019.58 1019.94 1020.26 1020.53 1020.80 1021.02 1021.09 1021.29 1021.86 1021.98 1022.05 1022.13 1022.16 1022.23 1022.34 1022.45 1022.50 1022.51 1022.57 1022.59 1022.54 1022.49 1022.44 1022.41 1022.37 1022.37 1022.37 1022.35 1022.35
1014.92 1014.10 1013.73 1013.72 1013.80 1014.13 1014.89 1014.91 1015.48 1015.83 1015.70 1016.17 1016.35 1016.33 1016.87 1017.36 1018.37 1018.74 1018.87 1019.10 1019.44 1019.85 1020.08 1020.32 1020.58 1020.78 1020.98 1021.18 1021.49 1022.02 1022.13 1022.21 1022.26 1022.26 1022.36 1022.40 1022.04 1022.15 1022.30 1022.44 1022.53 1022.51 1022.48 1022.42 1022.32 1022.26 1022.28 1022.27 1022.22
1014.90 1014.63 1014.53 1014.76 1014.60 1014.56 1014.98 1015.20 1015.33 1015.68 1015.75 1015.94 1016.34 1016.97 1017.30 1017.77 1018.25 1018.44 1018.58 1018.68 1018.98 1019.24 1019.71 1019.97 1020.29 1020.49 1020.76 1021.04 1021.26 1021.47 1021.53 1021.66 1021.74 1021.84 1021.87 1021.84 1021.88 1021.95 1022.20 1022.32 1022.46 1022.46 1022.47 1022.43 1022.34 1022.26 1022.21 1022.25 1021.44
1015.50 1015.26 1015.52 1015.75 1015.74 1015.58 1015.39 1015.66 1015.60 1015.45 1015.48 1015.10 1015.42 1016.38 1017.19 1017.62 1018.00 1018.22 1018.38 1018.46 1018.67 1018.91 1019.36 1019.78 1020.00 1020.27 1020.53 1020.70 1020.82 1020.99 1021.23 1021.41 1021.56 1021.72 1021.87 1021.83 1021.83 1021.85 1021.85 1021.79 1021.82 1021.79 1022.02 1021.68 1021.73 1021.89 1021.96 1021.82 1021.68
1015.79 1016.27 1016.35 1016.53 1016.69 1016.50 1016.11 1015.92 1015.66 1015.52 1015.09 1015.81 1015.97 1016.17 1017.05 1017.36 1017.58 1017.86 1018.23 1018.55 1018.88 1019.11 1019.31 1019.61 1019.80 1020.05 1020.30 1020.43 1020.63 1020.66 1020.90 1021.12 1021.32 1021.52 1021.70 1021.76 1021.75 1021.64 1021.66 1021.86 1021.82 1021.95 1021.73 1021.67 1021.65 1021.73 1021.63 1021.50 1021.51
1016.33 1016.75 1017.06 1017.22 1017.26 1016.99 1016.87 1016.42 1015.88 1015.67 1015.77 1016.18 1016.49 1016.68 1016.76 1017.11 1017.48 1017.82 1018.27 1018.74 1019.08 1019.30 1019.55 1019.71 1019.76 1019.84 1020.02 1020.35 1020.41 1020.57 1020.75 1020.94 1020.95 1021.20 1021.54 1021.73 1021.80 1021.67 1021.44 1021.28 1021.44 1021.48 1021.52 1021.48 1021.49 1021.48 1021.43 1021.33 1021.15
1017.07 1017.26 1017.53 1017.66 1017.77 1017.62 1017.21 1016.89 1016.66 1015.63 1016.02 1016.11 1016.44 1016.45 1016.61 1016.88 1017.44 1017.93 1018.29 1018.53 1019.08 1019.44 1019.79 1020.14 1020.24 1020.32 1020.21 1020.19 1020.35 1020.46 1020.53 1020.63 1020.80 1020.99 1021.45 1021.54 1021.57 1021.52 1021.40 1021.13 1021.08 1020.90 1020.90 1020.91 1020.94 1020.84 1020.78 1020.74 1020.63
1017.47 1017.48 1017.76 1017.86 1017.96 1017.98 1017.79 1017.29 1016.31 1015.99 1016.32 1016.06 1016.25 1016.43 1016.82 1017.27 1017.76 1017.99 1018.23 1018.60 1018.95 1019.40 1019.99 1020.37 1020.64 1020.69 1020.56 1020.51 1020.48 1020.46 1020.50 1020.70 1020.65 1020.80 1021.27 1021.39 1021.33 1021.19 1021.07 1020.64 1020.49 1020.42 1020.57 1020.63 1020.72 1020.35 1020.29 1020.23 1020.04
1017.56 1017.74 1017.62 1017.97 1018.19 1018.27 1018.34 1016.45 1016.24 1016.58 1016.51 1016.25 1016.32 1016.56 1017.07 1017.56 1018.02 1018.68 1019.05 1019.24 1019.51 1019.74 1020.05 1020.52 1020.78 1020.83 1020.86 1020.83 1020.75 1020.76 1020.80 1020.78 1021.04 1021.35 1021.36 1021.56 1021.32 1021.03 1020.76 1020.50 1020.36 1020.22 1020.15 1020.12 1019.94 1019.83 1019.84 1019.83 1019.68
1018.04 1017.46 1017.84 1018.13 1018.59 1018.49 1018.23 1016.84 1017.16 1017.27 1016.99 1016.50 1016.45 1016.58 1017.18 1017.82 1018.42 1018.96 1019.61 1019.91 1020.23 1020.40 1020.60 1020.83 1020.98 1021.04 1021.05 1021.01 1020.95 1021.07 1021.20 1021.23 1021.43 1021.74 1022.10 1022.17 1022.05 1021.79 1021.38 1021.22 1021.05 1020.77 1020.27 1020.19 1020.29 1020.25 1020.20 1019.80 1019.70
1017.43 1017.98 1018.41 1018.31 1018.93 1018.89 1018.49 1017.22 1017.31 1017.52 1017.47 1016.82 1016.67 1016.80 1017.16 1017.53 1018.13 1019.25 1019.99 1020.47 1020.81 1021.07 1021.29 1021.36 1021.42 1021.47 1021.27 1021.05 1021.12 1021.10 1021.39 1021.66 1021.98 1022.29 1022.61 1022.64 1022.55 1022.32 1022.01 1021.82 1021.46 1021.22 1020.86 1020.60 1020.61 1020.53 1020.56 1020.44 1020.28
1017.84 1018.02 1018.22 1018.93 1019.48 1019.30 1018.44 1017.74 1017.23 1017.26 1017.33 1016.96 1016.72 1016.72 1017.11 1017.56 1018.36 1019.65 1020.38 1020.97 1021.32 1021.51 1021.52 1021.64 1021.60 1021.71 1021.42 1021.18 1021.10 1021.17 1021.31 1021.90 1022.50 1023.12 1023.38 1023.18 1023.01 1022.65 1022.18 1021.87 1021.80 1021.71 1021.61 1021.48 1021.51 1021.31 1021.01 1020.45 1020.56
1018.66 1018.62 1019.01 1019.52 1019.80 1019.52 1018.68 1017.57 1016.79 1016.74 1016.33 1016.23 1016.28 1016.35 1016.57 1017.44 1018.62 1019.70 1020.52 1021.15 1021.46 1021.73 1021.95 1022.07 1022.19 1022.15 1022.00 1021.72 1021.56 1021.42 1021.72 1022.36 1022.87 1023.45 1023.76 1023.63 1023.40 1023.26 1022.83 1022.61 1022.50 1022.49 1022.23 1022.13 1021.91 1021.70 1021.18 1020.86 1021.20
1019.34 1019.26 1019.63 1019.90 1020.10 1019.86 1018.97 1016.99 1016.32 1016.16 1016.19 1016.30 1016.43 1016.30 1016.25 1016.88 1017.85 1019.15 1020.40 1021.07 1021.80 1022.23 1022.31 1022.36 1022.58 1022.55 1022.42 1022.17 1021.87 1021.96 1022.32 1022.74 1023.07 1023.42 1023.78 1024.03 1023.87 1023.78 1023.66 1023.40 1023.11 1022.89 1022.59 1022.50 1022.46 1022.32 1022.04 1021.57 1021.54
1019.66 1019.91 1020.07 1020.38 1020.24 1019.52 1019.43 1017.03 1016.15 1015.93 1015.83 1016.10 1016.29 1016.56 1016.78 1017.18 1017.79 1018.80 1020.27 1021.12 1021.75 1022.47 1022.85 1022.76 1022.73 1022.86 1022.83 1022.56 1022.14 1021.99 1022.07 1022.47 1023.31 1023.78 1024.15 1024.40 1024.48 1024.48 1024.25 1024.03 1023.79 1023.62 1023.32 1023.24 1023.22 1023.03 1022.67 1022.29 1022.01
1019.99 1020.27 1020.44 1020.67 1020.57 1020.26 1019.64 1018.94 1016.31 1016.29 1015.88 1016.28 1016.78 1017.28 1017.74 1018.23 1018.45 1019.41 1020.43 1021.39 1022.17 1022.61 1022.83 1023.02 1023.09 1023.15 1023.01 1022.79 1022.60 1022.46 1022.69 1023.28 1023.80 1024.21 1024.53 1024.72 1024.83 1025.01 1024.92 1024.63 1024.42 1024.23 1023.99 1023.91 1023.82 1023.55 1023.16 1023.13 1023.01
1020.65 1020.89 1021.35 1021.43 1021.22 1020.43 1019.19 1018.80 1016.72 1016.15 1016.30 1016.67 1017.22 1017.76 1018.60 1019.11 1019.39 1020.14 1021.24 1021.99 1022.63 1023.12 1023.16 1023.22 1023.24 1023.41 1023.43 1023.26 1023.09 1022.97 1023.13 1023.53 1023.91 1024.37 1024.58 1024.81 1024.95 1025.13 1025.39 1025.22 1024.99 1024.80 1024.68 1024.59 1024.42 1024.26 1024.07 1024.07 1023.99
1020.41 1020.76 1021.46 1021.76 1021.38 1020.00 1020.27 1019.66 1016.66 1016.58 1017.02 1017.63 1017.89 1018.34 1019.16 1019.60 1020.02 1020.73 1021.32 1021.94 1022.58 1023.03 1023.27 1023.50 1023.56 1023.72 1023.85 1023.77 1023.76 1023.86 1023.97 1024.13 1024.31 1024.61 1024.82 1024.93 1025.18 1025.51 1025.78 1025.57 1025.49 1025.40 1025.45 1025.27 1025.12 1024.97 1024.92 1024.91 1024.85
1020.28 1020.31 1020.16 1020.29 1020.66 1020.25 1020.65 1018.82 1016.92 1017.28 1017.78 1018.33 1018.76 1019.06 1019.63 1020.13 1020.61 1021.02 1021.58 1021.96 1022.44 1022.97 1023.25 1023.46 1023.62 1023.86 1024.05 1024.16 1024.29 1024.47 1024.54 1024.59 1024.85 1025.13 1025.31 1025.48 1025.62 1025.87 1026.01 1025.96 1025.91 1025.91 1025.90 1025.70 1025.51 1025.47 1025.61 1025.71 1025.76
1020.40 1020.57 1020.61 1020.70 1021.85 1020.84 1019.08 1018.21 1017.14 1017.57 1018.02 1018.62 1019.10 1019.49 1019.87 1020.36 1020.85 1021.27 1021.64 1021.92 1022.37 1022.90 1023.33 1023.56 1023.79 1024.09 1024.39 1024.55 1024.65 1024.88 1025.04 1025.12 1025.29 1025.54 1025.63 1025.78 1025.97 1026.18 1026.34 1026.30 1026.26 1026.30 1026.28 1026.19 1026.09 1026.26 1026.40 1026.51 1026.56
1019.55 1019.92 1020.51 1020.52 1020.53 1019.71 1018.66 1018.03 1016.72 1017.35 1017.88 1018.50 1018.99 1019.39 1019.88 1020.29 1020.72 1021.13 1021.56 1021.90 1022.31 1022.77 1023.25 1023.64 1023.90 1024.18 1024.60 1024.84 1025.10 1025.33 1025.57 1025.72 1025.85 1026.03 1026.22 1026.43 1026.76 1026.89 1026.92 1026.85 1026.85 1026.78 1026.77 1026.69 1026.69 1026.92 1027.03 1026.96 1027.12
1019.71 1019.43 1019.56 1019.55 1019.68 1019.01 1018.28 1016.98 1016.89 1017.27 1017.78 1018.19 1018.56 1019.05 1019.41 1019.76 1020.19 1020.65 1021.21 1021.73 1022.27 1022.76 1023.14 1023.44 1023.84 1024.23 1024.60 1024.86 1025.18 1025.52 1025.83 1026.10 1026.31 1026.46 1026.77 1027.04 1027.30 1027.42 1027.41 1027.43 1027.37 1027.37 1027.34 1027.30 1027.21 1027.35 1027.46 1027.53 1027.75
1018.80 1018.55 1018.72 1018.69 1019.50 1019.35 1018.78 1016.97 1016.95 1017.33 1017.72 1018.12 1018.32 1018.85 1019.12 1019.42 1019.78 1020.22 1020.74 1021.21 1021.63 1022.06 1022.60 1023.14 1023.57 1023.95 1024.35 1024.78 1025.24 1025.58 1025.89 1026.26 1026.51 1026.74 1026.99 1027.21 1027.52 1027.77 1027.83 1027.83 1027.83 1027.78 1027.82 1027.91 1027.95 1028.15 1028.26 1028.38 1028.53
Thickness
5756 5758 5763 5762 5739 5738 5716 5716 5727 5719 5719 5723 5724 5722 5721 5718 5714 5709 5721 5721 5720 5715 5712 5707 5704 5702 5701 5700 5698 5698 5696 5695 5695 5694 5693 5691 5690 5690 5689 5688 5688 5688 5687 5686 5685 5684 5682 5681 5681
5756 5757 5762 5755 5733 5721 5719 5725 5719 5726 5723 5724 5723 5721 5721 5713 5720 5719 5718 5720 5720 5716 5713 5710 5706 5704 5702 5701 5699 5698 5697 5696 5696 5695 5693 5692 5691 5689 5688 5688 5687 5686 5685 5684 5684 5682 5680 5679 5678
5755 5758 5753 5744 5731 5724 5723 5725 5727 5721 5721 5721 5719 5724 5722 5716 5721 5724 5725 5722 5719 5716 5713 5709 5706 5704 5702 5701 5700 5698 5697 5696 5695 5694 5693 5692 5690 5689 5688 5686 5685 5684 5683 5682 5682 5681 5679 5677 5676
5751 5753 5747 5736 5724 5727 5734 5733 5728 5717 5717 5720 5726 5716 5722 5726 5724 5727 5725 5722 5719 5716 5713 5708 5705 5703 5702 5701 5700 5698 5697 5696 5695 5694 5692 5691 5690 5689 5686 5685 5683 5682 5681 5681 5680 5678 5676 5674 5672
5749 5746 5730 5725 5720 5723 5728 5736 5730 5721 5722 5721 5722 5713 5718 5723 5726 5726 5723 5721 5719 5716 5713 5708 5705 5704 5702 5702 5700 5699 5697 5696 5695 5694 5692 5691 5690 5688 5686 5684 5682 5680 5679 5678 5677 5675 5673 5671 5669
5734 5737 5723 5720 5719 5719 5723 5729 5729 5724 5722 5718 5720 5719 5716 5722 5724 5724 5723 5720 5718 5715 5712 5710 5705 5703 5702 5701 5700 5698 5697 5695 5694 5693 5691 5690 5688 5687 5684 5681 5680 5678 5676 5675 5674 5672 5671 5669 5667
5723 5724 5720 5724 5717 5715 5720 5726 5725 5723 5719 5717 5725 5716 5715 5716 5723 5724 5722 5719 5716 5713 5710 5709 5707 5703 5701 5700 5699 5697 5695 5694 5693 5692 5690 5689 5686 5684 5681 5679 5677 5676 5674 5673 5671 5669 5667 5665 5663
5719 5718 5708 5718 5712 5713 5719 5721 5726 5724 5717 5720 5724 5716 5713 5721 5720 5720 5720 5717 5714 5711 5709 5708 5706 5704 5703 5701 5697 5696 5694 5693 5692 5690 5688 5685 5683 5681 5679 5677 5675 5673 5671 5670 5668 5666 5664 5662 5660
5710 5709 5704 5707 5710 5714 5716 5716 5717 5720 5719 5716 5720 5721 5722 5724 5718 5715 5714 5714 5713 5710 5709 5707 5706 5704 5703 5701 5698 5694 5692 5690 5689 5687 5685 5683 5682 5679 5677 5675 5672 5670 5668 5667 5665 5663 5661 5659 5657
5704 5702 5703 5708 5715 5715 5715 5716 5717 5714 5713 5713 5714 5715 5717 5717 5714 5711 5711 5711 5711 5711 5710 5708 5705 5704 5702 5700 5697 5694 5692 5690 5688 5685 5683 5682 5680 5677 5674 5672 5670 5668 5665 5663 5661 5659 5657 5654 5656
5691 5696 5697 5697 5704 5709 5712 5709 5717 5715 5707 5722 5717 5714 5712 5712 5711 5710 5711 5712 5711 5712 5709 5706 5704 5703 5701 5698 5696 5694 5691 5688 5685 5683 5680 5678 5676 5674 5673 5671 5669 5667 5664 5663 5660 5657 5654 5651 5649
5686 5684 5690 5691 5692 5696 5701 5710 5710 5714 5721 5717 5718 5718 5710 5708 5709 5709 5708 5709 5707 5706 5706 5704 5701 5699 5697 5695 5693 5692 5689 5686 5683 5680 5677 5675 5673 5672 5670 5667 5665 5663 5661 5659 5657 5653 5651 5648 5645
5680 5679 5681 5683 5684 5690 5692 5698 5706 5707 5715 5710 5709 5709 5708 5708 5707 5708 5707 5705 5703 5700 5699 5698 5696 5695 5693 5690 5689 5688 5685 5683 5681 5678 5675 5672 5669 5668 5667 5667 5663 5661 5658 5656 5652 5649 5646 5643 5641
5671 5672 5673 5676 5677 5680 5684 5688 5693 5708 5708 5707 5704 5706 5708 5706 5705 5703 5701 5701 5697 5695 5692 5690 5689 5688 5687 5687 5685 5684 5682 5680 5677 5674 5670 5668 5666 5665 5664 5663 5661 5660 5657 5654 5650 5647 5644 5640 5637
5662 5663 5665 5669 5672 5673 5677 5675 5687 5700 5697 5703 5701 5703 5701 5700 5700 5698 5699 5696 5694 5691 5687 5684 5682 5680 5680 5680 5680 5678 5676 5673 5672 5669 5665 5663 5662 5662 5660 5660 5659 5657 5652 5649 5645 5643 5640 5636 5632
5652 5656 5658 5660 5663 5666 5664 5682 5688 5686 5688 5693 5695 5695 5693 5691 5692 5688 5686 5687 5685 5684 5682 5678 5674 5673 5672 5671 5671 5670 5668 5666 5663 5660 5659 5657 5656 5657 5656 5656 5654 5651 5648 5645 5642 5639 5637 5632 5629
5636 5650 5646 5653 5652 5656 5659 5676 5671 5673 5677 5684 5687 5690 5686 5682 5681 5680 5676 5675 5673 5672 5671 5668 5667 5666 5665 5665 5664 5662 5660 5658 5655 5651 5648 5647 5646 5646 5646 5645 5643 5641 5641 5637 5632 5629 5625 5624 5619
5638 5633 5630 5644 5641 5641 5645 5663 5666 5665 5666 5675 5679 5679 5678 5679 5678 5671 5666 5664 5662 5660 5658 5658 5657 5656 5656 5657 5656 5655 5651 5648 5644 5641 5638 5636 5635 5635 5634 5632 5630 5629 5627 5626 5622 5619 5615 5612 5607
5630 5630 5633 5628 5627 5631 5641 5649 5659 5662 5661 5667 5670 5672 5670 5670 5670 5660 5656 5653 5651 5650 5650 5649 5650 5648 5649 5650 5649 5647 5645 5639 5633 5628 5625 5625 5624 5624 5624 5622 5619 5616 5613 5611 5606 5604 5602 5602 5596
5613 5618 5617 5616 5617 5622 5630 5641 5657 5658 5664 5666 5667 5669 5670 5665 5657 5651 5647 5643 5642 5640 5638 5638 5637 5636 5637 5638 5637 5637 5633 5628 5623 5618 5615 5614 5612 5611 5610 5608 5605 5602 5600 5597 5595 5592 5592 5589 5580
5601 5607 5605 5609 5608 5611 5620 5645 5648 5653 5652 5655 5656 5663 5668 5664 5658 5649 5639 5635 5629 5626 5625 5625 5624 5625 5626 5626 5626 5624 5620 5616 5614 5610 5605 5601 5599 5597 5595 5592 5591 5589 5587 5585 5581 5577 5575 5574 5567
5592 5597 5599 5597 5602 5611 5609 5634 5646 5648 5650 5649 5652 5651 5652 5653 5652 5644 5632 5626 5622 5616 5612 5613 5613 5613 5613 5614 5617 5617 5616 5613 5603 5597 5591 5588 5584 5581 5579 5577 5575 5573 5572 5568 5564 5560 5558 5556 5553
5588 5588 5591 5588 5589 5591 5599 5600 5642 5631 5644 5642 5639 5636 5636 5633 5637 5630 5624 5615 5608 5605 5605 5604 5603 5601 5602 5603 5604 5605 5601 5595 5588 5583 5578 5573 5570 5565 5562 5561 5559 5557 5555 5551 5547 5544 5543 5538 5534
5571 5574 5571 5572 5576 5577 5602 5601 5627 5638 5638 5636 5635 5630 5620 5618 5618 5616 5606 5600 5596 5592 5593 5593 5592 5591 5589 5590 5591 5591 5588 5582 5577 5571 5566 5561 5556 5552 5547 5546 5544 5541 5537 5533 5530 5526 5523 5518 5514
5569 5571 5557 5558 5560 5583 5571 5577 5623 5626 5627 5623 5624 5621 5612 5608 5606 5600 5596 5593 5588 5585 5583 5581 5580 5578 5576 5576 5575 5572 5569 5566 5561 5556 5552 5548 5544 5538 5533 5531 5527 5523 5519 5516 5512 5508 5504 5499 5495
5561 5568 5573 5569 5572 5578 5558 5581 5612 5608 5606 5606 5604 5606 5600 5597 5593 5591 5587 5585 5580 5575 5572 5570 5569 5567 5565 5563 5559 5555 5552 5549 5544 5540 5536 5533 5529 5524 5519 5516 5512 5508 5503 5499 5496 5491 5486 5480 5476
5552 5552 5558 5548 5506 5555 5583 5587 5604 5593 5595 5592 5593 5592 5592 5586 5582 5580 5577 5575 5570 5566 5561 5559 5557 5553 5550 5546 5543 5539 5535 5533 5530 5525 5522 5519 5515 5510 5506 5501 5496 5491 5487 5482 5478 5472 5467 5462 5457
5554 5555 5545 5545 5550 5557 5569 5572 5605 5594 5593 5586 5583 5583 5581 5577 5573 5571 5568 5564 5561 5556 5551 5547 5545 5541 5535 5532 5528 5525 5521 5518 5515 5511 5507 5503 5496 5491 5487 5483 5478 5475 5470 5466 5461 5455 5450 5446 5441
5541 5547 5547 5555 5549 5563 5566 5585 5584 5583 5581 5582 5579 5574 5572 5569 5567 5563 5558 5553 5548 5543 5540 5537 5532 5528 5525 5522 5518 5514 5509 5505 5500 5496 5490 5485 5479 5474 5469 5464 5459 5455 5452 5448 5445 5440 5435 5430 5424
5542 5549 5549 5553 5536 5538 5541 5573 5568 5570 5569 5565 5568 5564 5563 5562 5559 5555 5551 5547 5543 5540 5534 5529 5524 5520 5516 5512 5508 5503 5498 5492 5487 5481 5475 5470 5463 5457 5452 5447 5443 5440 5435 5431 5426 5421 5416 5410 5404